Location: Epalinges
(46.5518°N, 6.6683°E)
Time: 17:21:47
(UTC+00:00)

Lacrosse 4 Rocket - Pass Details

Date: 20 June 2021
Orbit: 543 x 614 km, 68.0° (Epoch: 03 August)

Event Time Altitude Azimuth Distance (km) Brightness Sun altitude
Rises 01:08:54 0° 331° (NNW) 2,749 5.5 -16.9°
Reaches altitude 10° 01:11:10 10° 335° (NNW) 1,840 4.6 -16.7°
Maximum altitude 01:15:13 60° 55° (NE) 631 1.8 -16.4°
Drops below altitude 10° 01:19:13 10° 137° (SE) 1,807 3.7 -16.1°
Enters shadow 01:20:10 - 139° (SE) 2,189 4.1 -16.1°
